Richmond West, FL

2:05 PM EDT on June 25, 2017 (GMT -0400)
JA Richmond West | | Change Station

Elev 7 ft 25.61 °N, 80.43 °W | Updated 3 seconds ago

Scattered Clouds
Scattered Clouds
91.9 °F
Feels Like 104 °F
N
7.3
Wind Variable Wind from ESE
Gusts 7.3 mph

Today
High -- | Low -- °F
--% Chance of Precip.
Yesterday
High -- | Low -- °F
Precip. -- in
Pressure 30.11 in
Visibility 10.0 miles
Clouds Scattered Clouds 3800 ft
Heat Index 104 °F
Dew Point 76 °F
Humidity 59%
Rainfall 0.00 in
Snow Depth Not available.
6:32 AM 8:16 PM
Waxing Crescent, 4% visible
METAR KTMB 251753Z 09013KT 10SM SCT038 32/23 A3011 RMK AO2 SLP196 T03170228 10328 20283 58002
Pressure 30.11 in
Visibility 10.0 miles
Clouds Scattered Clouds 3800 ft
Heat Index 104 °F
Dew Point 76 °F
Humidity 59%
Rainfall 0.00 in
Snow Depth Not available.
6:32 AM 8:16 PM
Waxing Crescent, 4% visible
METAR KTMB 251753Z 09013KT 10SM SCT038 32/23 A3011 RMK AO2 SLP196 T03170228 10328 20283 58002

Get Severe Weather Alerts

Thanks for signing up!

Be on the lookout for a verification email in your inbox.

You'll start receiving the daily forecast at 6 AM.

×

10-Day Weather Forecast

Almanac

Astronomy

Jun. 25, 2017 Rise Set
Actual Time
Civil Twilight
Nautical Twilight
Astronomical Twilight
Moon
Length of Visible Light
Length of Day
Tomorrow will be .
, % of the Moon is Illuminated

Today's Extremes

State Highs State Lows

Community

WunderPhotos

Category 6

Welcome to Category 6. This is the collective home for Weather Underground's featured writeups by Dr. Jeff Masters (right), Bob Henson (left), Chris Burt, and other regular contributors.

Nearby

Air Quality

  Air Quality AQ Index Pollutant
Not available.

Snow Depth

Station Depth Elevation

Earthquake Activity

City Distance Mag. Time & Date
Minimum magnitude displayed is 2.5.

Coastal Water Temperatures

Place Temperature

Stations

Nearby Weather Stations

Station Location Temp. Windchill Dew Point Humidity Wind Precip. Elev Updated Type
                   

Watches & Warnings

There are currently no watches in effect.